カタログに戻る

YAOGAN-30 Z

運用中軍事VLEO
NORAD 48425·PAYLOAD·🇨🇳 China

打ち上げ May 6, 2021 から Xichang Satellite Launch Center

Loading…

次のパス (今後24時間)

TLE

最新Source: Space-Track

元期: Sep 14, 2026, 22:24 UTC

1 48425U 21039C   26257.93393999  .00002192  00000-0  16164-3 0  9999
2 48425  34.9945 203.5636 0001259 179.1768 180.8942 15.03031867293066

AllMySatでYAOGAN-30 Zをリアルタイム追跡

Download on the App Store